Time,TemperatureF,DewpointF,PressureIn,WindDirection,WindDirectionDegrees,WindSpeedMPH,WindSpeedGustMPH,Humidity,HourlyPrecipIn,Conditions,Clouds,dailyrainin,SolarRadiationWatts/m^2,SoftwareType,DateUTC
2013-01-21 00:00:00,18.7,4.3,30.51,NNW,342,3.0,-999.0,60,-99.99,,,0.00,0.0,cwc,2013-01-21 07:00:00,
2013-01-21 00:10:00,16.9,3.6,30.52,NNW,343,1.0,-999.0,63,-99.99,,,0.00,0.0,cwc,2013-01-21 07:10:00,
2013-01-21 00:15:00,16.6,3.6,30.51,NNW,343,0.0,-999.0,64,-99.99,,,0.00,0.0,cwc,2013-01-21 07:15:00,
2013-01-21 00:20:00,16.3,3.7,30.52,NNW,342,2.0,-999.0,65,-99.99,,,0.00,0.0,cwc,2013-01-21 07:20:00,
2013-01-21 00:25:00,16.2,4.0,30.51,NNW,342,2.0,-999.0,66,-99.99,,,0.00,0.0,cwc,2013-01-21 07:25:00,
2013-01-21 00:30:00,16.6,4.0,30.51,NNW,342,4.0,-999.0,65,-99.99,,,0.00,0.0,cwc,2013-01-21 07:30:00,
2013-01-21 00:35:00,16.9,3.9,30.52,NNW,340,6.0,-999.0,64,-99.99,,,0.00,0.0,cwc,2013-01-21 07:35:00,
2013-01-21 00:40:00,17.2,3.9,30.52,NNW,338,4.0,-999.0,63,-99.99,,,0.00,0.0,cwc,2013-01-21 07:40:00,
2013-01-21 00:45:00,17.4,4.1,30.52,NNW,336,5.0,-999.0,63,-99.99,,,0.00,0.0,cwc,2013-01-21 07:45:00,
2013-01-21 00:50:00,17.7,4.0,30.52,NNW,338,7.0,-999.0,62,-99.99,,,0.00,0.0,cwc,2013-01-21 07:50:00,
2013-01-21 00:55:00,17.6,3.6,30.52,North,355,3.0,-999.0,61,-99.99,,,0.00,0.0,cwc,2013-01-21 07:55:00,
2013-01-21 01:00:00,17.6,3.6,30.52,North,355,6.0,-999.0,61,-99.99,,,0.00,0.0,cwc,2013-01-21 08:00:00,
2013-01-21 01:05:00,17.5,3.5,30.52,NE,36,4.0,-999.0,61,-99.99,,,0.00,0.0,cwc,2013-01-21 08:05:00,
2013-01-21 01:10:00,17.4,3.4,30.52,NNE,17,1.0,-999.0,61,-99.99,,,0.00,0.0,cwc,2013-01-21 08:10:00,
2013-01-21 01:15:00,17.3,3.6,30.52,NNW,344,5.0,-999.0,62,-99.99,,,0.00,0.0,cwc,2013-01-21 08:15:00,
2013-01-21 01:20:00,17.3,3.6,30.52,WNW,296,3.0,-999.0,62,-99.99,,,0.00,0.0,cwc,2013-01-21 08:20:00,
2013-01-21 01:25:00,17.3,3.3,30.52,NW,313,4.0,-999.0,61,-99.99,,,0.00,0.0,cwc,2013-01-21 08:25:00,
2013-01-21 01:30:00,17.2,3.5,30.53,NW,315,6.0,-999.0,62,-99.99,,,0.00,0.0,cwc,2013-01-21 08:30:00,
2013-01-21 01:35:00,17.1,3.4,30.53,NW,317,2.0,-999.0,62,-99.99,,,0.00,0.0,cwc,2013-01-21 08:35:00,
2013-01-21 01:40:00,17.1,3.4,30.53,NW,317,4.0,-999.0,62,-99.99,,,0.00,0.0,cwc,2013-01-21 08:40:00,
2013-01-21 01:45:00,17.1,3.4,30.53,NW,317,2.0,-999.0,62,-99.99,,,0.00,0.0,cwc,2013-01-21 08:45:00,
2013-01-21 01:50:00,17.1,3.4,30.53,NW,316,2.0,-999.0,62,-99.99,,,0.00,0.0,cwc,2013-01-21 08:50:00,
2013-01-21 01:55:00,16.8,3.1,30.53,NW,316,2.0,-999.0,62,-99.99,,,0.00,0.0,cwc,2013-01-21 08:55:00,
2013-01-21 02:00:00,15.8,1.8,30.53,NW,316,2.0,-999.0,61,-99.99,,,0.00,0.0,cwc,2013-01-21 09:00:00,
2013-01-21 02:10:00,13.4,1.5,30.53,NW,315,0.0,-999.0,67,-99.99,,,0.00,0.0,cwc,2013-01-21 09:10:00,
2013-01-21 02:15:00,12.8,0.9,30.53,NW,316,2.0,-999.0,67,-99.99,,,0.00,0.0,cwc,2013-01-21 09:15:00,
2013-01-21 02:20:00,12.3,1.1,30.52,NW,316,1.0,-999.0,69,-99.99,,,0.00,0.0,cwc,2013-01-21 09:20:00,
2013-01-21 02:25:00,11.9,1.1,30.53,NW,316,1.0,-999.0,70,-99.99,,,0.00,0.0,cwc,2013-01-21 09:25:00,
2013-01-21 02:30:00,11.7,0.9,30.53,NW,315,1.0,-999.0,70,-99.99,,,0.00,0.0,cwc,2013-01-21 09:30:00,
2013-01-21 02:35:00,11.4,0.6,30.53,NW,316,0.0,-999.0,70,-99.99,,,0.00,0.0,cwc,2013-01-21 09:35:00,
2013-01-21 02:40:00,10.9,0.5,30.53,NW,316,0.0,-999.0,71,-99.99,,,0.00,0.0,cwc,2013-01-21 09:40:00,
2013-01-21 02:45:00,10.5,0.8,30.53,NW,315,0.0,-999.0,73,-99.99,,,0.00,0.0,cwc,2013-01-21 09:45:00,
2013-01-21 02:50:00,10.4,1.0,30.52,NW,315,0.0,-999.0,74,-99.99,,,0.00,0.0,cwc,2013-01-21 09:50:00,
2013-01-21 03:00:00,11.4,2.8,30.53,NW,317,4.0,-999.0,76,-99.99,,,0.00,0.0,cwc,2013-01-21 10:00:00,
2013-01-21 03:05:00,12.3,2.2,30.52,NW,317,0.0,-999.0,72,-99.99,,,0.00,0.0,cwc,2013-01-21 10:05:00,
2013-01-21 03:10:00,12.5,2.1,30.52,NW,317,0.0,-999.0,71,-99.99,,,0.00,0.0,cwc,2013-01-21 10:10:00,
2013-01-21 03:15:00,12.4,1.2,30.52,NW,317,2.0,-999.0,69,-99.99,,,0.00,0.0,cwc,2013-01-21 10:15:00,
2013-01-21 03:20:00,11.7,0.5,30.52,NW,317,0.0,-999.0,69,-99.99,,,0.00,0.0,cwc,2013-01-21 10:20:00,
2013-01-21 03:25:00,11.3,0.5,30.52,NW,317,0.0,-999.0,70,-99.99,,,0.00,0.0,cwc,2013-01-21 10:25:00,
2013-01-21 03:30:00,10.7,0.3,30.52,NW,317,2.0,-999.0,71,-99.99,,,0.00,0.0,cwc,2013-01-21 10:30:00,
2013-01-21 03:35:00,10.1,0.0,30.52,NW,317,2.0,-999.0,72,-99.99,,,0.00,0.0,cwc,2013-01-21 10:35:00,
2013-01-21 03:40:00,9.7,0.0,30.52,NW,317,0.0,-999.0,73,-99.99,,,0.00,0.0,cwc,2013-01-21 10:40:00,
2013-01-21 03:45:00,9.4,0.0,30.52,NW,317,0.0,-999.0,74,-99.99,,,0.00,0.0,cwc,2013-01-21 10:45:00,
2013-01-21 03:50:00,9.3,0.3,30.52,NW,317,0.0,-999.0,75,-99.99,,,0.00,0.0,cwc,2013-01-21 10:50:00,
2013-01-21 03:55:00,9.1,-0.3,30.52,NW,317,1.0,-999.0,74,-99.99,,,0.00,0.0,cwc,2013-01-21 10:55:00,
2013-01-21 04:00:00,8.6,-0.4,30.52,NW,317,1.0,-999.0,75,-99.99,,,0.00,0.0,cwc,2013-01-21 11:00:00,
2013-01-21 04:05:00,8.4,-0.2,30.52,NW,317,2.0,-999.0,76,-99.99,,,0.00,0.0,cwc,2013-01-21 11:05:00,
2013-01-21 04:10:00,8.5,0.2,30.52,NW,317,0.0,-999.0,77,-99.99,,,0.00,0.0,cwc,2013-01-21 11:10:00,
2013-01-21 04:15:00,8.5,0.6,30.52,NW,317,1.0,-999.0,78,-99.99,,,0.00,0.0,cwc,2013-01-21 11:15:00,
2013-01-21 04:20:00,8.6,0.3,30.52,NW,317,0.0,-999.0,77,-99.99,,,0.00,0.0,cwc,2013-01-21 11:20:00,
2013-01-21 04:25:00,8.5,-0.1,30.53,NW,317,0.0,-999.0,76,-99.99,,,0.00,0.0,cwc,2013-01-21 11:25:00,
2013-01-21 04:30:00,8.3,-0.3,30.53,NW,317,1.0,-999.0,76,-99.99,,,0.00,0.0,cwc,2013-01-21 11:30:00,
2013-01-21 04:35:00,8.0,-0.6,30.53,NW,317,0.0,-999.0,76,-99.99,,,0.00,0.0,cwc,2013-01-21 11:35:00,
2013-01-21 04:40:00,8.0,-0.3,30.53,NW,317,0.0,-999.0,77,-99.99,,,0.00,0.0,cwc,2013-01-21 11:40:00,
2013-01-21 04:45:00,7.8,-0.5,30.53,NW,317,0.0,-999.0,77,-99.99,,,0.00,0.0,cwc,2013-01-21 11:45:00,
2013-01-21 04:50:00,7.6,-1.0,30.52,NW,317,0.0,-999.0,76,-99.99,,,0.00,0.0,cwc,2013-01-21 11:50:00,
2013-01-21 04:55:00,7.2,-1.4,30.53,NW,317,0.0,-999.0,76,-99.99,,,0.00,0.0,cwc,2013-01-21 11:55:00,
2013-01-21 05:00:00,7.0,-0.9,30.53,NW,317,1.0,-999.0,78,-99.99,,,0.00,0.0,cwc,2013-01-21 12:00:00,
2013-01-21 05:05:00,6.9,-0.7,30.53,NW,317,3.0,-999.0,79,-99.99,,,0.00,0.0,cwc,2013-01-21 12:05:00,
2013-01-21 05:10:00,6.9,-0.7,30.53,NW,317,2.0,-999.0,79,-99.99,,,0.00,0.0,cwc,2013-01-21 12:10:00,
2013-01-21 05:15:00,7.0,-0.6,30.54,NW,317,0.0,-999.0,79,-99.99,,,0.00,0.0,cwc,2013-01-21 12:15:00,
2013-01-21 05:20:00,6.9,-1.0,30.54,NW,317,0.0,-999.0,78,-99.99,,,0.00,0.0,cwc,2013-01-21 12:20:00,
2013-01-21 05:25:00,6.8,-1.1,30.53,NW,317,0.0,-999.0,78,-99.99,,,0.00,0.0,cwc,2013-01-21 12:25:00,
2013-01-21 05:30:00,6.5,-1.4,30.54,NW,317,0.0,-999.0,78,-99.99,,,0.00,0.0,cwc,2013-01-21 12:30:00,
2013-01-21 05:40:00,7.2,0.4,30.53,NW,317,3.0,-999.0,81,-99.99,,,0.00,0.0,cwc,2013-01-21 12:40:00,
2013-01-21 05:45:00,7.9,0.3,30.54,NW,317,2.0,-999.0,79,-99.99,,,0.00,0.0,cwc,2013-01-21 12:45:00,
2013-01-21 05:55:00,7.3,-1.3,30.54,NW,317,1.0,-999.0,76,-99.99,,,0.00,0.0,cwc,2013-01-21 12:55:00,
2013-01-21 06:00:00,7.1,-0.8,30.54,NW,317,0.0,-999.0,78,-99.99,,,0.00,0.0,cwc,2013-01-21 13:00:00,
2013-01-21 06:05:00,6.8,-1.5,30.54,NW,317,0.0,-999.0,77,-99.99,,,0.00,0.0,cwc,2013-01-21 13:05:00,
2013-01-21 06:10:00,6.5,-2.1,30.54,NW,317,0.0,-999.0,76,-99.99,,,0.00,0.0,cwc,2013-01-21 13:10:00,
2013-01-21 06:15:00,6.2,-2.1,30.54,NW,317,3.0,-999.0,77,-99.99,,,0.00,0.0,cwc,2013-01-21 13:15:00,
2013-01-21 06:25:00,6.0,-1.6,30.54,NW,317,0.0,-999.0,79,-99.99,,,0.00,0.0,cwc,2013-01-21 13:25:00,
2013-01-21 06:30:00,5.9,-1.7,30.54,NW,317,2.0,-999.0,79,-99.99,,,0.00,0.0,cwc,2013-01-21 13:30:00,
2013-01-21 06:35:00,5.8,-1.8,30.55,NW,317,0.0,-999.0,79,-99.99,,,0.00,0.0,cwc,2013-01-21 13:35:00,
2013-01-21 06:40:00,5.8,-1.4,30.55,NW,317,1.0,-999.0,80,-99.99,,,0.00,0.0,cwc,2013-01-21 13:40:00,
2013-01-21 06:45:00,5.9,-1.7,30.55,NW,317,1.0,-999.0,79,-99.99,,,0.00,0.0,cwc,2013-01-21 13:45:00,
2013-01-21 06:50:00,5.5,-2.1,30.55,NW,317,0.0,-999.0,79,-99.99,,,0.00,0.0,cwc,2013-01-21 13:50:00,
2013-01-21 07:00:00,5.1,-2.5,30.55,NW,317,0.0,-999.0,79,-99.99,,,0.00,0.0,cwc,2013-01-21 14:00:00,
2013-01-21 07:05:00,4.9,-2.7,30.55,NW,317,0.0,-999.0,79,-99.99,,,0.00,0.0,cwc,2013-01-21 14:05:00,
2013-01-21 07:10:00,4.8,-2.4,30.55,NW,317,3.0,-999.0,80,-99.99,,,0.00,0.0,cwc,2013-01-21 14:10:00,
2013-01-21 07:15:00,5.1,-1.4,30.55,NW,317,3.0,-999.0,82,-99.99,,,0.00,5.0,cwc,2013-01-21 14:15:00,
2013-01-21 07:20:00,5.2,-2.4,30.55,NW,317,1.0,-999.0,79,-99.99,,,0.00,7.0,cwc,2013-01-21 14:20:00,
2013-01-21 07:25:00,5.0,0.7,30.55,NW,317,0.0,-999.0,88,-99.99,,,0.00,9.0,cwc,2013-01-21 14:25:00,
2013-01-21 07:30:00,4.9,-2.3,30.55,NW,317,0.0,-999.0,80,-99.99,,,0.00,11.0,cwc,2013-01-21 14:30:00,
2013-01-21 07:35:00,4.9,-2.3,30.55,NW,317,2.0,-999.0,80,-99.99,,,0.00,16.0,cwc,2013-01-21 14:35:00,
2013-01-21 07:40:00,5.0,-2.2,30.55,NW,317,1.0,-999.0,80,-99.99,,,0.00,30.0,cwc,2013-01-21 14:40:00,
2013-01-21 07:45:00,5.2,-2.0,30.55,NW,317,1.0,-999.0,80,-99.99,,,0.00,46.0,cwc,2013-01-21 14:45:00,
2013-01-21 07:50:00,5.5,-1.3,30.55,NW,317,0.0,-999.0,81,-99.99,,,0.00,63.0,cwc,2013-01-21 14:50:00,
2013-01-21 07:55:00,6.1,-0.7,30.56,NW,317,1.0,-999.0,81,-99.99,,,0.00,81.0,cwc,2013-01-21 14:55:00,
2013-01-21 08:00:00,7.1,0.3,30.56,NW,317,0.0,-999.0,81,-99.99,,,0.00,102.0,cwc,2013-01-21 15:00:00,
2013-01-21 08:05:00,8.0,0.8,30.56,NW,317,0.0,-999.0,80,-99.99,,,0.00,118.0,cwc,2013-01-21 15:05:00,
2013-01-21 08:10:00,8.8,1.2,30.56,NW,317,0.0,-999.0,79,-99.99,,,0.00,134.0,cwc,2013-01-21 15:10:00,
2013-01-21 08:15:00,9.6,2.0,30.56,NW,317,0.0,-999.0,79,-99.99,,,0.00,153.0,cwc,2013-01-21 15:15:00,
2013-01-21 08:20:00,10.7,1.7,30.56,NW,317,1.0,-999.0,75,-99.99,,,0.00,172.0,cwc,2013-01-21 15:20:00,
2013-01-21 08:25:00,11.3,1.9,30.56,NW,317,0.0,-999.0,74,-99.99,,,0.00,188.0,cwc,2013-01-21 15:25:00,
2013-01-21 08:30:00,12.1,2.4,30.57,NW,317,0.0,-999.0,73,-99.99,,,0.00,211.0,cwc,2013-01-21 15:30:00,
2013-01-21 08:35:00,13.0,2.9,30.57,NW,317,0.0,-999.0,72,-99.99,,,0.00,225.0,cwc,2013-01-21 15:35:00,
2013-01-21 08:40:00,14.1,3.3,30.57,NW,317,0.0,-999.0,70,-99.99,,,0.00,248.0,cwc,2013-01-21 15:40:00,
2013-01-21 08:45:00,15.1,3.6,30.57,NW,317,4.0,-999.0,68,-99.99,,,0.00,267.0,cwc,2013-01-21 15:45:00,
2013-01-21 08:50:00,16.0,3.4,30.57,NW,317,3.0,-999.0,65,-99.99,,,0.00,281.0,cwc,2013-01-21 15:50:00,
2013-01-21 08:55:00,16.5,3.2,30.57,NW,321,3.0,-999.0,63,-99.99,,,0.00,297.0,cwc,2013-01-21 15:55:00,
2013-01-21 09:00:00,17.1,3.4,30.57,NW,321,0.0,-999.0,62,-99.99,,,0.00,309.0,cwc,2013-01-21 16:00:00,
2013-01-21 09:05:00,17.7,3.7,30.57,NW,321,1.0,-999.0,61,-99.99,,,0.00,315.0,cwc,2013-01-21 16:05:00,
2013-01-21 09:10:00,18.8,4.4,30.57,NW,321,0.0,-999.0,60,-99.99,,,0.00,325.0,cwc,2013-01-21 16:10:00,
2013-01-21 09:15:00,19.9,4.4,30.58,NW,321,0.0,-999.0,57,-99.99,,,0.00,336.0,cwc,2013-01-21 16:15:00,
2013-01-21 09:20:00,20.8,5.0,30.57,NW,321,0.0,-999.0,56,-99.99,,,0.00,355.0,cwc,2013-01-21 16:20:00,
2013-01-21 09:25:00,21.3,4.7,30.57,NW,319,3.0,-999.0,54,-99.99,,,0.00,369.0,cwc,2013-01-21 16:25:00,
2013-01-21 09:30:00,21.5,4.6,30.57,NW,321,3.0,-999.0,53,-99.99,,,0.00,374.0,cwc,2013-01-21 16:30:00,
2013-01-21 09:35:00,22.1,5.5,30.57,NW,321,1.0,-999.0,54,-99.99,,,0.00,392.0,cwc,2013-01-21 16:35:00,
2013-01-21 09:40:00,22.8,6.2,30.57,NW,321,0.0,-999.0,54,-99.99,,,0.00,406.0,cwc,2013-01-21 16:40:00,
2013-01-21 09:45:00,23.6,6.0,30.56,NW,321,1.0,-999.0,51,-99.99,,,0.00,418.0,cwc,2013-01-21 16:45:00,
2013-01-21 09:50:00,23.9,5.9,30.57,NW,321,0.0,-999.0,50,-99.99,,,0.00,427.0,cwc,2013-01-21 16:50:00,
2013-01-21 09:55:00,24.3,6.3,30.56,NW,321,1.0,-999.0,50,-99.99,,,0.00,438.0,cwc,2013-01-21 16:55:00,
2013-01-21 10:00:00,24.7,6.7,30.56,NW,321,0.0,-999.0,50,-99.99,,,0.00,455.0,cwc,2013-01-21 17:00:00,
2013-01-21 10:05:00,25.2,6.5,30.56,NW,321,5.0,-999.0,48,-99.99,,,0.00,466.0,cwc,2013-01-21 17:05:00,
2013-01-21 10:10:00,25.6,7.2,30.56,NW,321,0.0,-999.0,49,-99.99,,,0.00,475.0,cwc,2013-01-21 17:10:00,
2013-01-21 10:15:00,26.0,6.9,30.56,NW,321,1.0,-999.0,47,-99.99,,,0.00,485.0,cwc,2013-01-21 17:15:00,
2013-01-21 10:20:00,26.6,7.2,30.56,NW,321,0.0,-999.0,46,-99.99,,,0.00,492.0,cwc,2013-01-21 17:20:00,
2013-01-21 10:25:00,27.1,7.3,30.56,NNE,26,9.0,-999.0,45,-99.99,,,0.00,504.0,cwc,2013-01-21 17:25:00,
2013-01-21 10:30:00,28.0,7.8,30.55,NE,36,6.0,-999.0,44,-99.99,,,0.00,515.0,cwc,2013-01-21 17:30:00,
2013-01-21 10:35:00,28.9,8.0,30.54,NNE,15,6.0,-999.0,42,-99.99,,,0.00,520.0,cwc,2013-01-21 17:35:00,
2013-01-21 10:40:00,29.7,8.8,30.53,NNE,14,5.0,-999.0,42,-99.99,,,0.00,531.0,cwc,2013-01-21 17:40:00,
2013-01-21 10:45:00,30.1,8.9,30.52,NE,43,0.0,-999.0,41,-99.99,,,0.00,540.0,cwc,2013-01-21 17:45:00,
2013-01-21 10:50:00,30.8,9.6,30.52,NNE,29,1.0,-999.0,41,-99.99,,,0.00,547.0,cwc,2013-01-21 17:50:00,
2013-01-21 10:55:00,31.7,10.1,30.52,NE,40,3.0,-999.0,40,-99.99,,,0.00,555.0,cwc,2013-01-21 17:55:00,
2013-01-21 11:00:00,32.4,10.4,30.52,NE,43,3.0,-999.0,39,-99.99,,,0.00,563.0,cwc,2013-01-21 18:00:00,
2013-01-21 11:05:00,33.0,11.0,30.52,NE,44,0.0,-999.0,39,-99.99,,,0.00,568.0,cwc,2013-01-21 18:05:00,
2013-01-21 11:10:00,33.7,11.0,30.52,NE,46,6.0,-999.0,37,-99.99,,,0.00,573.0,cwc,2013-01-21 18:10:00,
2013-01-21 11:15:00,34.2,11.2,30.51,NE,55,5.0,-999.0,36,-99.99,,,0.00,578.0,cwc,2013-01-21 18:15:00,
2013-01-21 11:20:00,34.6,11.9,30.51,ENE,57,9.0,-999.0,37,-99.99,,,0.00,584.0,cwc,2013-01-21 18:20:00,
2013-01-21 11:25:00,35.3,12.3,30.50,ENE,71,12.0,-999.0,36,-99.99,,,0.00,589.0,cwc,2013-01-21 18:25:00,
2013-01-21 11:30:00,35.6,12.2,30.50,NNE,17,9.0,-999.0,35,-99.99,,,0.00,592.0,cwc,2013-01-21 18:30:00,
2013-01-21 11:35:00,35.8,12.0,30.49,NE,48,6.0,-999.0,34,-99.99,,,0.00,596.0,cwc,2013-01-21 18:35:00,
2013-01-21 11:40:00,36.3,12.5,30.49,NNE,23,3.0,-999.0,34,-99.99,,,0.00,599.0,cwc,2013-01-21 18:40:00,
2013-01-21 11:45:00,36.6,13.2,30.49,NNE,24,6.0,-999.0,35,-99.99,,,0.00,601.0,cwc,2013-01-21 18:45:00,
2013-01-21 11:50:00,37.2,13.4,30.48,NE,56,6.0,-999.0,34,-99.99,,,0.00,603.0,cwc,2013-01-21 18:50:00,
2013-01-21 11:55:00,37.6,13.8,30.48,NE,41,6.0,-999.0,34,-99.99,,,0.00,606.0,cwc,2013-01-21 18:55:00,
2013-01-21 12:00:00,37.9,14.1,30.48,NE,46,3.0,-999.0,34,-99.99,,,0.00,606.0,cwc,2013-01-21 19:00:00,
2013-01-21 12:05:00,38.4,14.3,30.47,NE,53,2.0,-999.0,33,-99.99,,,0.00,608.0,cwc,2013-01-21 19:05:00,
2013-01-21 12:10:00,38.9,14.4,30.47,ENE,59,5.0,-999.0,32,-99.99,,,0.00,610.0,cwc,2013-01-21 19:10:00,
2013-01-21 12:15:00,39.1,14.6,30.46,ENE,62,7.0,-999.0,32,-99.99,,,0.00,610.0,cwc,2013-01-21 19:15:00,
2013-01-21 12:20:00,39.3,15.2,30.46,ENE,57,4.0,-999.0,33,-99.99,,,0.00,610.0,cwc,2013-01-21 19:20:00,
2013-01-21 12:25:00,39.6,15.1,30.45,ENE,57,7.0,-999.0,32,-99.99,,,0.00,612.0,cwc,2013-01-21 19:25:00,
2013-01-21 12:30:00,39.7,15.2,30.44,ENE,57,2.0,-999.0,32,-99.99,,,0.00,608.0,cwc,2013-01-21 19:30:00,
2013-01-21 12:35:00,40.4,15.9,30.44,ENE,57,4.0,-999.0,32,-99.99,,,0.00,608.0,cwc,2013-01-21 19:35:00,
2013-01-21 12:40:00,40.9,16.4,30.44,ENE,57,3.0,-999.0,32,-99.99,,,0.00,605.0,cwc,2013-01-21 19:40:00,
2013-01-21 12:45:00,41.3,16.5,30.43,ENE,58,4.0,-999.0,31,-99.99,,,0.00,605.0,cwc,2013-01-21 19:45:00,
2013-01-21 12:50:00,41.8,17.0,30.43,ENE,58,5.0,-999.0,31,-99.99,,,0.00,601.0,cwc,2013-01-21 19:50:00,
2013-01-21 12:55:00,42.1,17.3,30.43,NNE,14,1.0,-999.0,31,-99.99,,,0.00,598.0,cwc,2013-01-21 19:55:00,
2013-01-21 13:00:00,42.3,17.5,30.43,NE,56,7.0,-999.0,31,-99.99,,,0.00,594.0,cwc,2013-01-21 20:00:00,
2013-01-21 13:05:00,42.6,17.4,30.42,ENE,60,3.0,-999.0,30,-99.99,,,0.00,591.0,cwc,2013-01-21 20:05:00,
2013-01-21 13:10:00,43.0,17.8,30.42,ENE,57,5.0,-999.0,30,-99.99,,,0.00,585.0,cwc,2013-01-21 20:10:00,
2013-01-21 13:15:00,43.2,18.0,30.41,ENE,62,7.0,-999.0,30,-99.99,,,0.00,582.0,cwc,2013-01-21 20:15:00,
2013-01-21 13:20:00,43.6,18.4,30.41,NE,51,7.0,-999.0,30,-99.99,,,0.00,573.0,cwc,2013-01-21 20:20:00,
2013-01-21 13:25:00,43.9,18.3,30.41,NE,55,5.0,-999.0,29,-99.99,,,0.00,568.0,cwc,2013-01-21 20:25:00,
2013-01-21 13:30:00,44.2,18.6,30.40,NE,54,2.0,-999.0,29,-99.99,,,0.00,564.0,cwc,2013-01-21 20:30:00,
2013-01-21 13:35:00,44.6,18.7,30.40,NE,55,6.0,-999.0,28,-99.99,,,0.00,557.0,cwc,2013-01-21 20:35:00,
2013-01-21 13:40:00,44.9,19.0,30.40,ENE,57,3.0,-999.0,28,-99.99,,,0.00,552.0,cwc,2013-01-21 20:40:00,
2013-01-21 13:45:00,45.0,18.7,30.39,NE,56,7.0,-999.0,27,-99.99,,,0.00,541.0,cwc,2013-01-21 20:45:00,
2013-01-21 13:50:00,45.1,18.8,30.39,NNE,30,5.0,-999.0,27,-99.99,,,0.00,534.0,cwc,2013-01-21 20:50:00,
2013-01-21 13:55:00,45.2,19.3,30.39,NNE,33,6.0,-999.0,28,-99.99,,,0.00,527.0,cwc,2013-01-21 20:55:00,
2013-01-21 14:00:00,45.5,19.2,30.39,ENE,63,5.0,-999.0,27,-99.99,,,0.00,517.0,cwc,2013-01-21 21:00:00,
2013-01-21 14:05:00,45.7,19.4,30.38,ENE,63,5.0,-999.0,27,-99.99,,,0.00,510.0,cwc,2013-01-21 21:05:00,
2013-01-21 14:10:00,46.0,19.4,30.38,NE,40,4.0,-999.0,26,-99.99,,,0.00,499.0,cwc,2013-01-21 21:10:00,
2013-01-21 14:15:00,46.2,19.6,30.38,NE,45,6.0,-999.0,26,-99.99,,,0.00,490.0,cwc,2013-01-21 21:15:00,
2013-01-21 14:25:00,46.4,20.1,30.38,NE,44,6.0,-999.0,27,-99.99,,,0.00,469.0,cwc,2013-01-21 21:25:00,
2013-01-21 14:30:00,46.7,20.1,30.38,NE,44,3.0,-999.0,26,-99.99,,,0.00,461.0,cwc,2013-01-21 21:30:00,
2013-01-21 14:35:00,46.9,20.3,30.37,NE,47,3.0,-999.0,26,-99.99,,,0.00,446.0,cwc,2013-01-21 21:35:00,
2013-01-21 14:40:00,47.1,20.5,30.37,NE,42,6.0,-999.0,26,-99.99,,,0.00,438.0,cwc,2013-01-21 21:40:00,
2013-01-21 14:45:00,47.2,20.6,30.37,NNE,32,3.0,-999.0,26,-99.99,,,0.00,425.0,cwc,2013-01-21 21:45:00,
2013-01-21 14:50:00,47.4,20.8,30.37,NE,34,2.0,-999.0,26,-99.99,,,0.00,411.0,cwc,2013-01-21 21:50:00,
2013-01-21 15:00:00,47.8,21.2,30.37,NE,52,3.0,-999.0,26,-99.99,,,0.00,385.0,cwc,2013-01-21 22:00:00,
2013-01-21 15:05:00,47.9,21.3,30.37,NNE,30,6.0,-999.0,26,-99.99,,,0.00,373.0,cwc,2013-01-21 22:05:00,
2013-01-21 15:10:00,47.8,21.2,30.37,NNE,22,5.0,-999.0,26,-99.99,,,0.00,359.0,cwc,2013-01-21 22:10:00,
2013-01-21 15:15:00,47.7,21.1,30.37,ENE,63,3.0,-999.0,26,-99.99,,,0.00,346.0,cwc,2013-01-21 22:15:00,
2013-01-21 15:20:00,47.7,21.1,30.37,ENE,63,3.0,-999.0,26,-99.99,,,0.00,332.0,cwc,2013-01-21 22:20:00,
2013-01-21 15:25:00,47.6,21.0,30.37,NE,36,2.0,-999.0,26,-99.99,,,0.00,316.0,cwc,2013-01-21 22:25:00,
2013-01-21 15:30:00,47.6,21.0,30.37,ENE,57,8.0,-999.0,26,-99.99,,,0.00,299.0,cwc,2013-01-21 22:30:00,
2013-01-21 15:35:00,47.3,21.0,30.37,ENE,58,4.0,-999.0,27,-99.99,,,0.00,281.0,cwc,2013-01-21 22:35:00,
2013-01-21 15:40:00,47.2,20.9,30.37,NE,37,3.0,-999.0,27,-99.99,,,0.00,262.0,cwc,2013-01-21 22:40:00,
2013-01-21 15:45:00,47.0,21.1,30.36,NNE,28,5.0,-999.0,28,-99.99,,,0.00,250.0,cwc,2013-01-21 22:45:00,
2013-01-21 15:50:00,46.7,20.8,30.36,NNE,30,7.0,-999.0,28,-99.99,,,0.00,227.0,cwc,2013-01-21 22:50:00,
2013-01-21 15:55:00,46.4,20.5,30.36,NE,36,5.0,-999.0,28,-99.99,,,0.00,206.0,cwc,2013-01-21 22:55:00,
2013-01-21 16:00:00,46.2,20.3,30.36,NNE,25,4.0,-999.0,28,-99.99,,,0.00,188.0,cwc,2013-01-21 23:00:00,
2013-01-21 16:05:00,46.0,19.7,30.36,NNE,21,8.0,-999.0,27,-99.99,,,0.00,165.0,cwc,2013-01-21 23:05:00,
2013-01-21 16:10:00,45.9,20.0,30.36,NNE,20,8.0,-999.0,28,-99.99,,,0.00,149.0,cwc,2013-01-21 23:10:00,
2013-01-21 16:15:00,45.7,19.8,30.36,NNE,21,5.0,-999.0,28,-99.99,,,0.00,127.0,cwc,2013-01-21 23:15:00,
2013-01-21 16:20:00,45.5,19.6,30.36,NNE,22,1.0,-999.0,28,-99.99,,,0.00,19.0,cwc,2013-01-21 23:20:00,
2013-01-21 16:25:00,45.2,19.3,30.36,NNE,23,2.0,-999.0,28,-99.99,,,0.00,18.0,cwc,2013-01-21 23:25:00,
2013-01-21 16:30:00,44.9,19.0,30.36,NNE,24,5.0,-999.0,28,-99.99,,,0.00,16.0,cwc,2013-01-21 23:30:00,
2013-01-21 16:35:00,44.6,19.0,30.36,NNE,24,2.0,-999.0,29,-99.99,,,0.00,16.0,cwc,2013-01-21 23:35:00,
2013-01-21 16:40:00,44.3,18.7,30.36,NNE,24,6.0,-999.0,29,-99.99,,,0.00,14.0,cwc,2013-01-21 23:40:00,
2013-01-21 16:45:00,44.1,18.5,30.36,NNE,24,1.0,-999.0,29,-99.99,,,0.00,14.0,cwc,2013-01-21 23:45:00,
2013-01-21 16:50:00,43.9,19.1,30.36,NNE,22,2.0,-999.0,31,-99.99,,,0.00,12.0,cwc,2013-01-21 23:50:00,
2013-01-21 16:55:00,43.7,18.5,30.37,NNE,23,2.0,-999.0,30,-99.99,,,0.00,12.0,cwc,2013-01-21 23:55:00,
2013-01-21 17:00:00,43.7,18.9,30.37,NNE,23,0.0,-999.0,31,-99.99,,,0.00,11.0,cwc,2013-01-22 00:00:00,
2013-01-21 17:05:00,43.5,18.7,30.37,NNE,22,3.0,-999.0,31,-99.99,,,0.00,9.0,cwc,2013-01-22 00:05:00,
2013-01-21 17:10:00,42.9,18.4,30.37,NNE,23,0.0,-999.0,32,-99.99,,,0.00,7.0,cwc,2013-01-22 00:10:00,
2013-01-21 17:15:00,42.5,18.0,30.37,NNE,23,1.0,-999.0,32,-99.99,,,0.00,5.0,cwc,2013-01-22 00:15:00,
2013-01-21 17:20:00,42.1,17.3,30.37,NNE,23,0.0,-999.0,31,-99.99,,,0.00,0.0,cwc,2013-01-22 00:20:00,
2013-01-21 17:25:00,41.9,17.4,30.37,NNE,22,2.0,-999.0,32,-99.99,,,0.00,0.0,cwc,2013-01-22 00:25:00,
2013-01-21 17:30:00,40.8,17.0,30.37,NNE,22,2.0,-999.0,34,-99.99,,,0.00,0.0,cwc,2013-01-22 00:30:00,
2013-01-21 17:35:00,39.9,16.1,30.37,NNE,23,0.0,-999.0,34,-99.99,,,0.00,0.0,cwc,2013-01-22 00:35:00,
2013-01-21 17:40:00,39.5,15.7,30.37,NNE,23,1.0,-999.0,34,-99.99,,,0.00,0.0,cwc,2013-01-22 00:40:00,
2013-01-21 17:45:00,39.0,16.0,30.38,NNE,23,1.0,-999.0,36,-99.99,,,0.00,0.0,cwc,2013-01-22 00:45:00,
2013-01-21 17:50:00,38.8,15.0,30.38,NNE,22,0.0,-999.0,34,-99.99,,,0.00,0.0,cwc,2013-01-22 00:50:00,
2013-01-21 17:55:00,39.0,15.2,30.38,NNE,22,0.0,-999.0,34,-99.99,,,0.00,0.0,cwc,2013-01-22 00:55:00,
2013-01-21 18:00:00,39.1,15.3,30.38,NNE,22,2.0,-999.0,34,-99.99,,,0.00,0.0,cwc,2013-01-22 01:00:00,
2013-01-21 18:05:00,39.3,15.5,30.38,NNE,15,4.0,-999.0,34,-99.99,,,0.00,0.0,cwc,2013-01-22 01:05:00,
2013-01-21 18:10:00,39.6,15.8,30.38,North,5,2.0,-999.0,34,-99.99,,,0.00,0.0,cwc,2013-01-22 01:10:00,
2013-01-21 18:15:00,39.6,16.2,30.38,North,360,1.0,-999.0,35,-99.99,,,0.00,0.0,cwc,2013-01-22 01:15:00,
2013-01-21 18:20:00,39.3,15.5,30.38,North,360,3.0,-999.0,34,-99.99,,,0.00,0.0,cwc,2013-01-22 01:20:00,
2013-01-21 18:25:00,39.0,15.6,30.38,North,360,3.0,-999.0,35,-99.99,,,0.00,0.0,cwc,2013-01-22 01:25:00,
2013-01-21 18:30:00,38.4,15.7,30.39,North,360,0.0,-999.0,37,-99.99,,,0.00,0.0,cwc,2013-01-22 01:30:00,
2013-01-21 18:35:00,37.6,14.9,30.39,North,360,0.0,-999.0,37,-99.99,,,0.00,0.0,cwc,2013-01-22 01:35:00,
2013-01-21 18:40:00,36.6,14.3,30.39,North,360,1.0,-999.0,38,-99.99,,,0.00,0.0,cwc,2013-01-22 01:40:00,
2013-01-21 18:45:00,35.5,13.5,30.39,North,360,2.0,-999.0,39,-99.99,,,0.00,0.0,cwc,2013-01-22 01:45:00,
2013-01-21 18:50:00,34.4,13.2,30.40,North,360,0.0,-999.0,41,-99.99,,,0.00,0.0,cwc,2013-01-22 01:50:00,
2013-01-21 18:55:00,33.4,12.5,30.40,North,360,0.0,-999.0,42,-99.99,,,0.00,0.0,cwc,2013-01-22 01:55:00,
2013-01-21 19:00:00,32.5,12.3,30.40,North,360,0.0,-999.0,44,-99.99,,,0.00,0.0,cwc,2013-01-22 02:00:00,
2013-01-21 19:05:00,31.6,11.8,30.40,North,360,0.0,-999.0,45,-99.99,,,0.00,0.0,cwc,2013-01-22 02:05:00,
2013-01-21 19:10:00,30.5,11.1,30.40,North,360,0.0,-999.0,46,-99.99,,,0.00,0.0,cwc,2013-01-22 02:10:00,
2013-01-21 19:15:00,29.5,11.1,30.40,North,360,3.0,-999.0,49,-99.99,,,0.00,0.0,cwc,2013-01-22 02:15:00,
2013-01-21 19:25:00,28.1,10.5,30.41,NNW,348,3.0,-999.0,51,-99.99,,,0.00,0.0,cwc,2013-01-22 02:25:00,
2013-01-21 19:30:00,27.9,10.3,30.41,North,349,6.0,-999.0,51,-99.99,,,0.00,0.0,cwc,2013-01-22 02:30:00,
2013-01-21 19:40:00,27.5,10.2,30.41,NNW,333,3.0,-999.0,52,-99.99,,,0.00,0.0,cwc,2013-01-22 02:40:00,
2013-01-21 19:45:00,26.9,10.0,30.41,NNW,329,3.0,-999.0,53,-99.99,,,0.00,0.0,cwc,2013-01-22 02:45:00,
2013-01-21 19:50:00,26.4,9.8,30.41,NNW,329,1.0,-999.0,54,-99.99,,,0.00,0.0,cwc,2013-01-22 02:50:00,
2013-01-21 19:55:00,26.2,9.6,30.41,NNW,329,0.0,-999.0,54,-99.99,,,0.00,0.0,cwc,2013-01-22 02:55:00,
2013-01-21 20:00:00,25.9,9.7,30.41,NNW,329,3.0,-999.0,55,-99.99,,,0.00,0.0,cwc,2013-01-22 03:00:00,
2013-01-21 20:05:00,25.7,9.9,30.41,NNW,329,3.0,-999.0,56,-99.99,,,0.00,0.0,cwc,2013-01-22 03:05:00,
2013-01-21 20:10:00,25.7,9.9,30.41,NNW,329,0.0,-999.0,56,-99.99,,,0.00,0.0,cwc,2013-01-22 03:10:00,
2013-01-21 20:15:00,25.2,9.4,30.42,NNW,329,3.0,-999.0,56,-99.99,,,0.00,0.0,cwc,2013-01-22 03:15:00,
2013-01-21 20:20:00,24.9,9.4,30.42,NNW,329,0.0,-999.0,57,-99.99,,,0.00,0.0,cwc,2013-01-22 03:20:00,
2013-01-21 20:25:00,24.7,9.2,30.43,NNW,329,1.0,-999.0,57,-99.99,,,0.00,0.0,cwc,2013-01-22 03:25:00,
2013-01-21 20:30:00,24.6,9.5,30.42,NNW,329,0.0,-999.0,58,-99.99,,,0.00,0.0,cwc,2013-01-22 03:30:00,
2013-01-21 20:35:00,24.7,9.9,30.43,NNW,329,0.0,-999.0,59,-99.99,,,0.00,0.0,cwc,2013-01-22 03:35:00,
2013-01-21 20:40:00,25.1,10.3,30.43,NNW,329,2.0,-999.0,59,-99.99,,,0.00,0.0,cwc,2013-01-22 03:40:00,
2013-01-21 20:45:00,26.2,10.4,30.43,NNW,329,0.0,-999.0,56,-99.99,,,0.00,0.0,cwc,2013-01-22 03:45:00,
2013-01-21 20:50:00,26.5,10.3,30.43,NNW,329,2.0,-999.0,55,-99.99,,,0.00,0.0,cwc,2013-01-22 03:50:00,
2013-01-21 20:55:00,26.2,10.0,30.44,NNW,329,1.0,-999.0,55,-99.99,,,0.00,0.0,cwc,2013-01-22 03:55:00,
2013-01-21 21:00:00,25.8,10.0,30.44,NNW,329,2.0,-999.0,56,-99.99,,,0.00,0.0,cwc,2013-01-22 04:00:00,
2013-01-21 21:05:00,25.2,10.1,30.44,NNW,329,0.0,-999.0,58,-99.99,,,0.00,0.0,cwc,2013-01-22 04:05:00,
2013-01-21 21:10:00,24.6,9.8,30.45,NNW,329,2.0,-999.0,59,-99.99,,,0.00,0.0,cwc,2013-01-22 04:10:00,
2013-01-21 21:15:00,24.4,9.3,30.44,NNW,329,0.0,-999.0,58,-99.99,,,0.00,0.0,cwc,2013-01-22 04:15:00,
2013-01-21 21:20:00,24.4,9.6,30.45,NNW,329,1.0,-999.0,59,-99.99,,,0.00,0.0,cwc,2013-01-22 04:20:00,
2013-01-21 21:25:00,24.1,9.3,30.45,NNW,329,1.0,-999.0,59,-99.99,,,0.00,0.0,cwc,2013-01-22 04:25:00,
2013-01-21 21:30:00,23.4,9.0,30.45,NNW,329,0.0,-999.0,60,-99.99,,,0.00,0.0,cwc,2013-01-22 04:30:00,
2013-01-21 21:35:00,23.0,8.6,30.45,NNW,329,0.0,-999.0,60,-99.99,,,0.00,0.0,cwc,2013-01-22 04:35:00,
2013-01-21 21:40:00,22.8,8.8,30.46,NNW,329,0.0,-999.0,61,-99.99,,,0.00,0.0,cwc,2013-01-22 04:40:00,
2013-01-21 21:45:00,22.5,8.8,30.46,NNW,329,6.0,-999.0,62,-99.99,,,0.00,0.0,cwc,2013-01-22 04:45:00,
2013-01-21 21:50:00,23.6,10.3,30.46,NW,315,5.0,-999.0,63,-99.99,,,0.00,0.0,cwc,2013-01-22 04:50:00,
2013-01-21 21:55:00,25.2,10.4,30.46,NW,317,0.0,-999.0,59,-99.99,,,0.00,0.0,cwc,2013-01-22 04:55:00,
2013-01-21 22:00:00,25.6,10.1,30.46,NW,317,0.0,-999.0,57,-99.99,,,0.00,0.0,cwc,2013-01-22 05:00:00,
2013-01-21 22:05:00,25.3,9.8,30.46,NW,317,4.0,-999.0,57,-99.99,,,0.00,0.0,cwc,2013-01-22 05:05:00,
2013-01-21 22:10:00,25.1,10.3,30.46,NW,315,3.0,-999.0,59,-99.99,,,0.00,0.0,cwc,2013-01-22 05:10:00,
2013-01-21 22:15:00,25.7,10.6,30.46,NW,315,1.0,-999.0,58,-99.99,,,0.00,0.0,cwc,2013-01-22 05:15:00,
2013-01-21 22:20:00,26.3,10.8,30.46,NW,315,2.0,-999.0,57,-99.99,,,0.00,0.0,cwc,2013-01-22 05:20:00,
2013-01-21 22:25:00,26.9,11.1,30.46,NW,313,3.0,-999.0,56,-99.99,,,0.00,0.0,cwc,2013-01-22 05:25:00,
2013-01-21 22:30:00,27.2,11.0,30.47,NW,312,5.0,-999.0,55,-99.99,,,0.00,0.0,cwc,2013-01-22 05:30:00,
2013-01-21 22:35:00,27.4,10.8,30.47,NW,312,3.0,-999.0,54,-99.99,,,0.00,0.0,cwc,2013-01-22 05:35:00,
2013-01-21 22:40:00,27.4,10.5,30.47,NW,306,4.0,-999.0,53,-99.99,,,0.00,0.0,cwc,2013-01-22 05:40:00,
2013-01-21 22:45:00,27.0,9.7,30.47,NW,306,2.0,-999.0,52,-99.99,,,0.00,0.0,cwc,2013-01-22 05:45:00,
2013-01-21 22:50:00,25.9,9.0,30.47,NW,306,0.0,-999.0,53,-99.99,,,0.00,0.0,cwc,2013-01-22 05:50:00,
2013-01-21 22:55:00,24.9,8.7,30.47,NW,306,0.0,-999.0,55,-99.99,,,0.00,0.0,cwc,2013-01-22 05:55:00,
2013-01-21 23:00:00,24.3,8.8,30.47,NW,306,2.0,-999.0,57,-99.99,,,0.00,0.0,cwc,2013-01-22 06:00:00,
2013-01-21 23:05:00,24.1,8.6,30.47,NW,306,3.0,-999.0,57,-99.99,,,0.00,0.0,cwc,2013-01-22 06:05:00,
2013-01-21 23:10:00,24.1,9.3,30.47,NW,314,3.0,-999.0,59,-99.99,,,0.00,0.0,cwc,2013-01-22 06:10:00,
2013-01-21 23:15:00,24.2,9.1,30.47,NW,313,1.0,-999.0,58,-99.99,,,0.00,0.0,cwc,2013-01-22 06:15:00,
2013-01-21 23:20:00,23.9,8.4,30.48,NW,313,0.0,-999.0,57,-99.99,,,0.00,0.0,cwc,2013-01-22 06:20:00,
2013-01-21 23:25:00,23.3,8.2,30.48,NW,313,2.0,-999.0,58,-99.99,,,0.00,0.0,cwc,2013-01-22 06:25:00,
2013-01-21 23:30:00,23.1,9.1,30.48,NW,313,4.0,-999.0,61,-99.99,,,0.00,0.0,cwc,2013-01-22 06:30:00,
2013-01-21 23:35:00,23.8,9.4,30.47,NW,313,1.0,-999.0,60,-99.99,,,0.00,0.0,cwc,2013-01-22 06:35:00,
2013-01-21 23:40:00,24.5,9.7,30.47,NW,310,1.0,-999.0,59,-99.99,,,0.00,0.0,cwc,2013-01-22 06:40:00,
2013-01-21 23:45:00,24.5,9.4,30.47,NW,311,2.0,-999.0,58,-99.99,,,0.00,0.0,cwc,2013-01-22 06:45:00,
2013-01-21 23:50:00,24.3,8.8,30.47,NW,311,2.0,-999.0,57,-99.99,,,0.00,0.0,cwc,2013-01-22 06:50:00,
2013-01-21 23:55:00,23.5,8.0,30.47,NW,311,2.0,-999.0,57,-99.99,,,0.00,0.0,cwc,2013-01-22 06:55:00,